Weather in Kapchaguy

Kazakhstan     43°51′18″N   77°03′44″E
temp.,
°C
wind,
m/s
gust,
m/s
humid.,
%
clouds,
%
prec.,
mm/h
press.,
hPa
HPBL,
m
6 march, sat
sat600:000ene337312 0.0 103082
03:000e517660 0.0 1027571
06:00+1e818690 0.0 1025555
09:00+3e1018600 0.0 1023613
12:00+6e11164636 0.0 1018670
15:00+9e11153462 0.0 1014823
18:00+8e7133632 0.0 1014676
21:00+4e4105185 0.0 1015294
7 march, sun
sun700:00+3ene126192 0.0 101536
03:00+2n1266100 0.0 101524
06:00+1nnw2264100 0.0 101724
09:00+4w235299 0.0 1019126
12:00+8wnw3545100 0.0 1019856
15:00+10nnw2343100 0.0 10181075
18:00+8nnw3455100 0.0 1019438
21:00+5n3560100 0.0 1021178
8 march, mon
mon800:00+3ene1167100 0.0 102022
03:00+2n126993 0.0 101922
06:00+2ne117492 0.0 101922
09:00+4ese2362100 0.0 1020141
12:00+8e464494 0.0 1019639
15:00+11ene114095 0.0 1018651
18:00+9nne234997 0.0 1020127
21:00+7ne0057100 0.0 102322
9 march, tue
tue900:00+6ne1256100 0.0 102422
03:00+6ene2356100 0.0 102322
06:00+5ene3465100 0.0 102338
09:00+6e51349100 0.0 1021506
12:00+10e91336100 0.0 1017787
15:00+13e9123356 0.0 1014863
18:00+12e6123566 0.0 1013577
21:00+8e4124394 0.0 1014296
10 march, wed
wed1000:00+8ene375097 0.0 1012162
03:00+6ese41151100 0.0 1010289
06:00+6ese41254100 0.0 1009340
09:00+7se3653100 0.0 1010276
12:00+12w2339100 0.0 1007455
15:00+16wsw243087 0.0 10071069
18:00+15nw694094 0.0 1010887
21:00+11w71076100 1.2 1016918